FW7665 Weather Reports


Display with metric or nautical units.
time (UTC)temp
F
wind
direction
speed
MPH
gust
MPH
rain 1hr
in
rain 24hr
in
rain mn
in
humidity
%
barometer
mb
20260504234528 49 116 4.0 10.0 0.00 0.00 0.00 54 1010.8
20260504233607 50 96 2.0 6.0 0.00 0.00 0.00 56 1010.8
20260504232709 50 84 2.0 6.0 0.00 0.00 0.00 54 1010.8
20260504231807 50 93 3.0 6.0 0.00 0.00 0.00 53 1010.8
20260504230907 50 85 1.0 7.0 0.00 0.00 0.00 53 1010.8
20260504230007 50 107 4.0 11.0 0.00 0.00 0.00 52 1010.8
20260504225407 51 104 5.0 14.0 0.00 0.00 0.00 49 1010.8
20260504224528 53 114 3.0 9.0 0.00 0.00 0.00 46 1010.6
20260504223607 54 139 3.0 11.0 0.00 0.00 0.00 42 1010.6
20260504222707 56 225 1.0 4.0 0.00 0.00 0.00 40 1010.6
20260504221807 56 281 1.0 5.0 0.00 0.00 0.00 39 1010.6
20260504220906 56 263 2.0 6.0 0.00 0.00 0.00 37 1010.6
20260504220007 57 268 2.0 8.0 0.00 0.00 0.00 40 1010.6
20260504215407 57 274 3.0 9.0 0.00 0.00 0.00 40 1010.6
20260504214506 56 260 4.0 12.0 0.00 0.00 0.00 39 1010.2
20260504213628 59 274 4.0 10.0 0.00 0.00 0.00 35 1010.2
20260504212706 60 1 2.0 7.0 0.00 0.00 0.00 33 1010.2
20260504211827 59 36 4.0 11.0 0.00 0.00 0.00 34 1010.2
20260504210907 61 98 4.0 11.0 0.00 0.00 0.00 29 1010.2
20260504210007 62 36 2.0 9.0 0.00 0.00 0.00 29 1010.2
20260504205407 62 8 1.0 8.0 0.00 0.00 0.00 33 1010.2
20260504204506 60 38 2.0 10.0 0.00 0.00 0.00 33 1011.6
20260504203607 62 66 3.0 10.0 0.00 0.00 0.00 34 1011.6
20260504202707 60 53 2.0 7.0 0.00 0.00 0.00 36 1011.6
20260504201806 59 31 4.0 12.0 0.00 0.00 0.00 36 1011.6
20260504200907 58 78 2.0 5.0 0.00 0.00 0.00 40 1011.6
20260504200027 57 34 3.0 7.0 0.00 0.00 0.00 44 1011.6
20260504195406 56 304 2.0 7.0 0.00 0.00 0.00 41 1011.6
20260504194506 56 26 3.0 12.0 0.00 0.00 0.00 42 1012.3
20260504193627 53 327 2.0 12.0 0.00 0.00 0.00 47 1012.3
20260504192706 54 273 3.0 9.0 0.00 0.00 0.00 47 1012.3
20260504191808 56 291 2.0 7.0 0.00 0.00 0.00 46 1012.3
20260504190906 54 281 3.0 9.0 0.00 0.00 0.00 44 1012.3
20260504190027 53 284 2.0 7.0 0.00 0.00 0.00 44 1012.3
20260504185406 53 279 2.0 7.0 0.00 0.00 0.00 42 1012.3
20260504184528 54 286 3.0 9.0 0.00 0.00 0.00 43 1012.3
20260504183627 55 288 3.0 9.0 0.00 0.00 0.00 40 1012.3
20260504182706 56 269 3.0 9.0 0.00 0.00 0.00 40 1012.3
20260504181806 57 257 3.0 12.0 0.00 0.00 0.00 37 1012.3
20260504180927 57 288 3.0 11.0 0.00 0.00 0.00 37 1012.3
20260504180006 57 301 2.0 6.0 0.00 0.00 0.00 39 1012.3
20260504175406 55 275 2.0 7.0 0.00 0.00 0.00 39 1012.3
20260504174506 55 281 2.0 6.0 0.00 0.00 0.00 40 1014.1
20260504173627 55 272 2.0 5.0 0.00 0.00 0.00 36 1014.1
20260504172706 56 282 3.0 8.0 0.00 0.00 0.00 37 1014.1
20260504171805 56 352 2.0 8.0 0.00 0.00 0.00 35 1014.1
20260504170927 55 180 1.0 8.0 0.00 0.00 0.00 36 1014.1
20260504150905 39 0 0.0 0.0 0.00 0.00 0.00 75 1014.1
20260504140905 33 0 0.0 0.0 0.00 0.00 0.00 75 1014.1
20260504081809 32 0 0.0 0.0 0.00 0.00 0.00 70 1015.1
20260504080909 32 0 0.0 0.0 0.00 0.00 0.00 71 1015.1
20260504050008 39 0 0.0 0.0 0.00 0.00 0.00 63 1016.2
20260504045408 39 0 0.0 0.0 0.00 0.00 0.00 62 1016.2
20260504044509 40 0 0.0 0.0 0.00 0.00 0.00 59 1016.2
20260504043630 40 237 0.0 2.0 0.00 0.00 0.00 60 1016.2
20260504042708 40 0 0.0 0.0 0.00 0.00 0.00 61 1016.2
20260504041808 41 0 0.0 0.0 0.00 0.00 0.00 60 1016.2
20260504040908 42 0 0.0 0.0 0.00 0.00 0.00 60 1016.2
20260504040008 42 0 0.0 0.0 0.00 0.00 0.00 59 1016.2
20260504035408 42 0 0.0 0.0 0.00 0.00 0.00 57 1016.2
20260504034508 43 197 0.0 2.0 0.00 0.00 0.00 58 1016.2
20260504033608 43 0 0.0 0.0 0.00 0.00 0.00 56 1016.2
20260504032708 44 197 0.0 1.0 0.00 0.00 0.00 56 1016.2
20260504031829 44 196 1.0 3.0 0.00 0.00 0.00 53 1016.2
20260504030908 44 0 0.0 0.0 0.00 0.00 0.00 54 1016.2
20260504030008 44 0 0.0 0.0 0.00 0.00 0.00 52 1016.2
20260504025408 45 195 0.0 3.0 0.00 0.00 0.00 53 1016.2
20260504024508 45 0 0.0 0.0 0.00 0.00 0.00 54 1016.2
20260504023608 46 0 0.0 0.0 0.00 0.00 0.00 55 1016.2
20260504022707 46 0 0.0 0.0 0.00 0.00 0.00 52 1016.2
20260504021808 47 0 0.0 0.0 0.00 0.00 0.00 48 1015.9
20260504020907 48 191 0.0 1.0 0.00 0.00 0.00 47 1015.9
20260504020008 50 191 0.0 1.0 0.00 0.00 0.00 44 1015.9
20260504015407 50 312 1.0 6.0 0.00 0.00 0.00 41 1015.9
20260504014507 50 242 2.0 8.0 0.00 0.00 0.00 40 1015.9
20260504013608 51 314 3.0 12.0 0.00 0.00 0.00 42 1015.9
20260504012707 51 341 2.0 6.0 0.00 0.00 0.00 42 1015.9
20260504011813 52 234 1.0 4.0 0.00 0.00 0.00 39 1015.4
20260504010913 52 213 2.0 5.0 0.00 0.00 0.00 37 1015.4
20260504010013 52 279 2.0 4.0 0.00 0.00 0.00 38 1015.4
20260504005434 52 283 2.0 4.0 0.00 0.00 0.00 37 1015.4
20260504004512 53 351 1.0 3.0 0.00 0.00 0.00 38 1015.4
20260504003612 53 330 1.0 9.0 0.00 0.00 0.00 35 1015.4
20260504002712 53 269 2.0 7.0 0.00 0.00 0.00 35 1015.4
20260504001833 53 325 2.0 5.0 0.00 0.00 0.00 37 1015.6
20260504000912 54 257 2.0 8.0 0.00 0.00 0.00 35 1015.6
20260504000012 55 234 2.0 11.0 0.00 0.00 0.00 37 1015.6
20260503235412 56 240 3.0 11.0 0.00 0.00 0.00 32 1015.6